Waarnemingen

Advertentie
Mijn weer
Girona/Costa Brava, Spanje (8184): temperatuur & dauwpunt: 11.01.2019 01:00:00 - 17.01.2019 01:00:00 (CET)Girona/Costa Brava, Spanje (8184): windsnelheid: 11.01.2019 01:00:00 - 17.01.2019 01:00:00 (CET)Girona/Costa Brava, Spanje (8184): windrichting: 11.01.2019 01:00:00 - 17.01.2019 01:00:00 (CET)Girona/Costa Brava, Spanje (8184): luchtdruk: 11.01.2019 01:00:00 - 17.01.2019 01:00:00 (CET)Girona/Costa Brava, Spanje (8184): zicht: 11.01.2019 01:00:00 - 17.01.2019 01:00:00 (CET)
Datum & Tijd tt [°C] td [°C] ff [km/u] ff [kn] dd ppp [hPa] vv [km]
17.01.2019 01:00:00 3,8 3,7 0 0 N 1016,8 -
17.01.2019 00:00:00 2,6 2,3 4 2 NNO 1017,2 -
16.01.2019 23:00:00 2,3 1,7 4 2 NO 1017,2 -
16.01.2019 22:00:00 4,3 3,7 0 0 N 1016,8 -
16.01.2019 21:00:00 5,9 4,9 4 2 NW 1016,3 -
16.01.2019 20:00:00 7,4 5,6 0 0 N 1016,1 -
16.01.2019 19:00:00 8,9 7,5 13 7 NNO 1015,6 8
16.01.2019 18:00:00 9,8 7,6 15 8 N 1015,3 -
16.01.2019 17:00:00 12,8 7,5 13 7 ZZW 1014,9 -
16.01.2019 16:00:00 14,5 8,0 18 10 ZZW 1014,8 20
16.01.2019 15:00:00 14,5 8,0 22 12 ZZW 1014,8 -
16.01.2019 14:00:00 13,5 7,6 4 2 NNO 1015,3 -
16.01.2019 13:00:00 10,9 6,6 5 3 ONO 1016,4 20
16.01.2019 12:00:00 8,3 5,4 4 2 O 1017,7 -
16.01.2019 11:00:00 5,7 5,3 0 0 N 1018,8 -
16.01.2019 10:00:00 1,6 1,6 0 0 N 1019,1 -
16.01.2019 09:00:00 -1,3 -1,3 8 4 NO 1019,2 -
16.01.2019 08:00:00 -1,1 -1,1 0 0 N 1019,0 -
16.01.2019 07:00:00 -2,1 -2,1 4 2 NO 1018,9 -
16.01.2019 06:00:00 -2,1 -2,1 4 2 ZW 1019,0 -
16.01.2019 05:00:00 -1,3 -1,3 0 0 N 1019,3 -
16.01.2019 04:00:00 -0,9 -0,9 0 0 N 1019,7 -
16.01.2019 03:00:00 -0,3 -0,3 0 0 N 1020,0 -
16.01.2019 02:00:00 -0,1 -0,1 0 0 N 1019,9 -
16.01.2019 01:00:00 0,6 0,6 0 0 N 1020,1 -
16.01.2019 00:00:00 1,5 1,4 0 0 N 1020,5 -
15.01.2019 23:00:00 2,6 2,5 0 0 N 1020,7 -
15.01.2019 22:00:00 2,7 2,3 0 0 N 1020,6 0,3
15.01.2019 21:00:00 4,8 4,2 0 0 N 1020,3 -
15.01.2019 20:00:00 6,1 4,6 0 0 N 1020,4 -
15.01.2019 19:00:00 8,1 6,7 4 2 Z 1019,9 15
15.01.2019 18:00:00 9,4 7,0 8 4 ZZW 1019,6 -
15.01.2019 17:00:00 13,4 7,7 13 7 Z 1019,3 -
15.01.2019 16:00:00 15,3 6,2 9 5 ZZW 1019,2 15
15.01.2019 15:00:00 15,3 5,2 5 3 Z 1019,3 -
15.01.2019 14:00:00 14,3 7,3 8 4 Z 1019,9 -
15.01.2019 13:00:00 12,7 6,5 5 3 ZZW 1020,9 -
15.01.2019 12:00:00 10,1 4,9 4 2 Z 1022,0 -
15.01.2019 11:00:00 7,3 3,9 0 0 N 1022,6 -
15.01.2019 10:00:00 2,9 1,9 4 2 NO 1022,6 -
15.01.2019 09:00:00 -0,4 -0,5 0 0 N 1022,1 -
15.01.2019 08:00:00 -1,0 -1,1 0 0 N 1021,4 -
15.01.2019 07:00:00 -0,6 -0,7 0 0 N 1021,0 7
15.01.2019 06:00:00 -0,9 -1,2 8 4 NO 1020,5 -
15.01.2019 05:00:00 0,9 0,6 2 1 W 1020,5 -
15.01.2019 04:00:00 1,2 0,5 0 0 N 1020,8 8
15.01.2019 03:00:00 2,8 1,4 4 2 WNW 1020,7 -
15.01.2019 02:00:00 3,7 2,9 5 3 NW 1020,8 -
15.01.2019 01:00:00 4,9 4,0 9 5 NNW 1020,8 8
15.01.2019 00:00:00 2,8 1,9 4 2 N 1021,1 -
14.01.2019 23:00:00 3,2 2,8 8 4 N 1020,6 -
14.01.2019 22:00:00 3,1 2,2 8 4 NNO 1020,4 9
14.01.2019 21:00:00 4,8 3,7 5 3 NNO 1019,8 -
14.01.2019 20:00:00 6,7 4,8 5 3 WNW 1019,1 -
14.01.2019 19:00:00 7,6 6,4 4 2 WZW 1018,8 -
14.01.2019 18:00:00 9,5 6,0 4 2 Z 1017,8 -
14.01.2019 17:00:00 11,7 6,2 8 4 Z 1017,2 -
14.01.2019 16:00:00 12,5 6,3 11 6 WZW 1016,8 30
14.01.2019 15:00:00 14,1 6,7 11 6 ZZW 1016,3 -
14.01.2019 14:00:00 14,9 4,6 11 6 ZZO 1016,0 -
14.01.2019 13:00:00 14,9 5,1 11 6 ZZW 1015,9 -
14.01.2019 12:00:00 12,7 6,4 5 3 ZZW 1016,8 -
14.01.2019 11:00:00 12,1 6,0 4 2 Z 1017,0 -
14.01.2019 10:00:00 7,9 4,8 2 1 NNW 1017,3 -
14.01.2019 09:00:00 2,9 1,9 0 0 N 1017,0 -
14.01.2019 08:00:00 0,8 -0,1 4 2 ZW 1016,4 -
14.01.2019 07:00:00 1,3 0,1 5 3 ZZW 1016,0 -
14.01.2019 06:00:00 1,8 0,5 0 0 N 1016,5 -
14.01.2019 05:00:00 0,9 -0,1 4 2 NNO 1017,0 -
14.01.2019 04:00:00 0,8 -0,2 0 0 N 1016,9 -
14.01.2019 03:00:00 1,7 0,8 4 2 WZW 1017,5 -
14.01.2019 02:00:00 1,7 0,4 2 1 OZO 1017,4 -
14.01.2019 01:00:00 1,8 0,2 0 0 N 1018,3 -
14.01.2019 00:00:00 2,5 0,4 4 2 Z 1019,0 -
13.01.2019 23:00:00 3,3 0,8 0 0 N 1019,2 -
13.01.2019 22:00:00 4,1 1,6 0 0 N 1019,6 -
13.01.2019 21:00:00 4,8 1,1 0 0 N 1019,6 -
13.01.2019 20:00:00 6,6 2,1 0 0 N 1019,5 -
13.01.2019 19:00:00 9,6 2,4 9 5 NW 1019,8 30
13.01.2019 18:00:00 9,7 1,6 4 2 ONO 1019,6 -
13.01.2019 17:00:00 13,1 2,3 4 2 Z 1019,2 -
13.01.2019 16:00:00 15,0 0,5 5 3 W 1019,6 50
13.01.2019 15:00:00 14,4 1,5 2 1 OZO 1020,2 -
13.01.2019 14:00:00 13,3 0,8 5 3 Z 1020,6 -
13.01.2019 13:00:00 10,7 2,7 8 4 ZZW 1021,4 50
13.01.2019 12:00:00 7,2 2,8 8 4 ZZW 1022,9 -
13.01.2019 11:00:00 4,1 2,1 5 3 ZZW 1023,5 -
13.01.2019 10:00:00 0,8 -0,5 0 0 N 1023,8 -
13.01.2019 09:00:00 -0,6 -1,3 2 1 O 1023,8 -
13.01.2019 08:00:00 -1,9 -2,6 0 0 N 1023,5 -
13.01.2019 07:00:00 -1,8 -2,4 2 1 W 1023,6 25
13.01.2019 06:00:00 -2,0 -2,8 0 0 N 1023,9 -
13.01.2019 05:00:00 -2,3 -3,6 4 2 O 1024,1 -
13.01.2019 04:00:00 0,1 -1,7 9 5 WNW 1024,2 -
13.01.2019 03:00:00 0,8 -1,6 5 3 NNO 1024,8 -
13.01.2019 02:00:00 1,8 -0,1 11 6 N 1025,0 -
13.01.2019 01:00:00 0,4 -1,7 8 4 N 1025,0 20
13.01.2019 00:00:00 -0,6 -1,3 9 5 NNO 1025,5 -
12.01.2019 23:00:00 -0,4 -1,5 0 0 N 1025,6 -
12.01.2019 22:00:00 0,2 -1,9 0 0 N 1025,8 30
12.01.2019 21:00:00 1,5 -1,2 5 3 Z 1026,1 -
12.01.2019 20:00:00 3,6 0,4 0 0 N 1026,0 -
12.01.2019 19:00:00 6,0 1,7 8 4 W 1025,5 30
12.01.2019 18:00:00 7,4 2,5 11 6 ZZW 1025,0 -
12.01.2019 17:00:00 10,9 1,9 15 8 ZZW 1024,5 -
12.01.2019 16:00:00 13,1 -0,7 11 6 ZZO 1024,0 30
12.01.2019 15:00:00 13,6 -1,5 5 3 ZZW 1023,9 -
12.01.2019 14:00:00 13,0 -3,0 4 2 Z 1024,4 -
12.01.2019 13:00:00 10,9 -1,5 5 3 NO 1025,1 40
12.01.2019 12:00:00 8,7 -0,9 4 2 ZZO 1025,9 -
12.01.2019 11:00:00 5,3 -1,8 4 2 Z 1027,0 -
12.01.2019 10:00:00 0,9 -2,8 5 3 NO 1027,3 -
12.01.2019 09:00:00 -2,3 -4,3 2 1 NO 1026,8 -
12.01.2019 08:00:00 -3,9 -5,7 0 0 N 1026,3 -
12.01.2019 07:00:00 -4,4 -5,9 8 4 ZW 1026,2 -
12.01.2019 06:00:00 -4,2 -5,7 2 1 ZW 1026,3 -
12.01.2019 05:00:00 -3,6 -5,5 4 2 OZO 1026,6 -
12.01.2019 04:00:00 -3,6 -5,3 8 4 W 1026,9 -
12.01.2019 03:00:00 -3,1 -5,1 4 2 ZZW 1026,8 -
12.01.2019 02:00:00 -2,9 -4,6 5 3 NO 1026,6 -
12.01.2019 01:00:00 -2,7 -4,7 4 2 N 1026,3 -
12.01.2019 00:00:00 -0,3 -4,0 4 2 W 1026,5 -
11.01.2019 23:00:00 -0,6 -3,5 4 2 NNO 1026,2 -
11.01.2019 22:00:00 1,0 -4,7 8 4 NNW 1025,9 -
11.01.2019 21:00:00 1,3 -2,8 4 2 NW 1025,7 -
11.01.2019 20:00:00 2,7 -2,4 0 0 N 1025,2 -
11.01.2019 19:00:00 4,5 -1,9 5 3 W 1024,3 -
11.01.2019 18:00:00 5,0 -1,9 11 6 Z 1023,6 -
11.01.2019 17:00:00 8,2 -2,2 11 6 Z 1023,1 -
11.01.2019 16:00:00 10,0 -5,4 16 9 ZZW 1022,1 30
11.01.2019 15:00:00 10,1 -6,4 15 8 ZZW 1022,0 -
11.01.2019 14:00:00 9,3 -6,5 18 10 ZZW 1022,3 -
11.01.2019 13:00:00 8,4 -7,2 13 7 Z 1022,8 -
11.01.2019 12:00:00 6,5 -4,2 8 4 ZZW 1023,3 -
11.01.2019 11:00:00 4,0 -2,1 5 3 Z 1023,9 -
11.01.2019 10:00:00 0,9 -4,3 0 0 N 1023,7 -
11.01.2019 09:00:00 -4,0 -5,9 0 0 N 1023,5 -
11.01.2019 08:00:00 -5,4 -7,3 0 0 N 1022,7 -
11.01.2019 07:00:00 -4,4 -6,2 5 3 WNW 1022,2 45
11.01.2019 06:00:00 -5,0 -7,2 2 1 NO 1021,8 -
11.01.2019 05:00:00 -4,6 -6,4 0 0 N 1021,5 -
11.01.2019 04:00:00 -4,7 -6,7 0 0 N 1021,6 45
11.01.2019 03:00:00 -4,6 -6,6 0 0 N 1021,6 -
11.01.2019 02:00:00 -4,0 -6,0 2 1 NO 1021,1 -
11.01.2019 01:00:00 -2,4 -5,6 4 2 NW 1020,9 45

tt = temperatuur
td = dauwpunt
ff = windsnelheid
dd = windrichting
ppp = luchtdruk
vv = zicht

Weerstations in de omgeving